SCP
2 2 2 2 2 1 1 1 1 1 0 1 1 1 1 1 1 1 1 1 1 1 1 1 1 1 1 1 1 1 1 1 1 1 1 1 1 1 1 1 1 1 1
2 2 2 2 2 2 1 1 1 1 0 0 1 1 1 1 1 1 1 1 1 1 2 1 1 1 1 1 2 2 2 1 1 1 1 1 1 1 1 1 1 1 1
2 2 2 2 2 2 1 1 1 1 1 1 1 1 1 1 1 1 1 1 1 2 2 2 1 1 1 2 2 2 2 2 2 1 1 1 1 1 1 1 1 1 1
2 2 2 2 1 1 1 1 1 1 1 1 1 1 1 1 1 1 1 1 1 1 2 2 1 1 1 1 2 2 2 2 2 2 1 1 1 1 1 1 1 1 1
2 2 2 2 2 2 2 1 1 1 1 1 1 1 1 1 1 1 1 1 1 1 2 1 1 1 1 1 1 1 2 2 2 2 2 1 1 1 1 1 1 1 1
2 1 2 2 2 2 2 2 2 2 2 1 1 1 1 1 1 1 1 1 1 2 2 1 1 1 1 1 1 1 1 2 2 2 2 2 1 1 1 1 1 1 1
1 1 1 1 1 2 2 2 2 2 2 1 1 1 1 1 0 1 1 1 1 2 2 1 1 1 1 1 1 1 2 2 2 2 2 2 1 1 1 1 1 1 1
1 1 1 1 1 1 1 1 1 1 1 1 1 1 1 0 0 0 0 1 1 1 2 2 1 1 1 1 1 2 2 1 1 1 1 1 1 1 1 1 1 1 1
1 1 1 1 0 0 0 0 1 1 1 0 0 1 0 0 0 0 0 0 1 1 1 2 1 1 1 1 2 2 2 1 1 1 1 1 1 1 1 1 1 1 1
2 1 1 1 1 0 0 0 1 1 1 0 0 0 0 0 0 0 0 0 0 1 1 2 2 1 1 1 2 2 2 1 1 1 1 1 1 1 1 1 1 2 2
2 1 1 1 1 1 1 1 1 1 1 1 1 1 1 0 0 0 0 0 0 0 1 1 2 2 1 1 1 2 2 1 1 1 1 1 1 1 1 1 1 2 2
2 1 1 1 1 1 1 1 1 1 1 1 1 1 1 1 1 1 0 0 0 0 1 1 2 2 1 1 1 1 1 1 1 1 1 1 1 1 1 1 1 1 1
1 1 1 1 2 2 2 2 1 1 1 1 2 2 2 1 1 1 1 0 0 0 0 1 2 2 2 1 1 1 1 1 1 1 1 1 1 1 1 1 1 1 1
1 1 1 2 2 3 3 2 1 1 1 1 2 2 2 1 1 1 1 0 0 0 0 1 1 1 1 1 1 1 1 1 1 1 1 1 1 1 1 1 1 1 1
1 1 1 2 2 3 3 2 1 1 1 1 2 2 2 1 1 1 1 0 0 0 0 0 1 1 1 1 1 1 1 1 1 0 1 1 1 1 1 1 1 1 1
2 2 2 2 3 4 4 3 1 1 1 1 1 1 1 1 1 1 1 0 0 0 0 0 1 1 1 1 1 1 1 1 0 0 0 0 0 0 0 0 0 0 0
3 4 4 4 4 5 5 3 1 1 1 1 1 1 1 1 1 1 1 1 0 1 0 0 1 1 1 1 1 1 1 1 0 0 0 0 0 0 0 0 0 0 0
4 5 5 5 5 5 5 3 1 1 1 1 1 1 1 1 1 1 1 1 1 1 1 1 1 1 1 1 1 1 1 1 1 0 0 0 0 0 0 0 0 0 0
4 4 4 4 4 4 4 2 1 1 1 1 1 1 1 1 1 1 1 0 0 1 1 1 1 1 1 1 1 1 1 1 1 1 1 0 0 0 0 0 0 0 0
3 3 3 3 3 3 3 2 2 2 2 2 1 1 1 1 1 1 1 0 0 0 0 0 1 1 1 1 2 1 1 1 1 1 1 1 0 0 0 0 0 0 0
2 2 2 2 2 2 2 2 1 2 2 2 1 1 1 1 1 1 1 0 0 0 0 0 0 1 1 1 2 2 2 2 2 2 1 1 1 1 0 0 0 0 0
1 1 1 1 1 1 1 1 1 1 1 1 1 1 1 1 1 1 1 0 0 0 0 0 1 1 1 1 2 2 2 2 2 2 2 1 1 1 1 0 0 0 0
1 1 1 1 1 1 0 0 1 1 1 1 1 1 1 1 1 1 1 1 0 0 0 1 1 1 1 1 2 2 2 2 2 1 1 1 2 1 1 1 1 0 0
2 2 1 1 1 1 1 0 0 1 1 1 1 1 1 1 1 1 1 1 1 0 0 0 1 1 1 2 2 2 2 2 2 1 1 1 1 1 1 1 1 0 0
2 2 1 1 1 1 1 0 0 1 1 2 2 1 1 1 1 1 1 1 1 1 1 0 0 1 1 1 2 1 1 2 2 1 1 1 1 1 1 1 1 1 0
2 2 1 2 2 2 1 1 0 1 1 2 2 1 1 1 1 1 1 1 1 1 1 1 0 0 1 1 1 1 1 2 2 1 1 1 1 1 1 1 1 1 1
Wind_Speed
1 1 0 0 0 0 1 1 1 1 1 1 1 3 4 4 4 3 3 7 8 8 10 11 11 10 11 11 10 10 10 11 11 11 11 11 11 11 11 12 12 11 11
1 1 1 1 0 0 0 1 1 1 1 1 1 2 4 4 3 3 3 4 6 6 7 8 9 9 10 10 9 9 10 11 11 11 11 11 11 11 11 11 11 11 11
2 1 1 0 0 0 0 1 1 1 1 0 1 2 2 3 3 3 3 2 3 5 7 7 8 9 9 10 9 9 8 8 8 9 10 11 11 11 10 10 10 10 10
2 2 1 0 0 1 1 1 1 1 1 1 0 1 2 2 3 3 2 2 2 3 5 7 7 7 8 9 9 9 8 8 8 8 8 9 10 11 10 10 10 10 10
2 2 1 1 1 1 1 1 1 1 1 0 0 1 1 2 2 3 3 3 3 3 3 5 7 7 8 9 9 9 9 8 8 9 9 9 10 10 10 10 10 10 10
2 2 1 1 1 2 2 1 1 1 1 1 0 0 0 1 1 2 3 3 3 4 3 3 3 5 8 8 8 9 9 9 9 9 9 9 9 10 10 10 10 11 11
2 2 2 2 2 2 1 1 1 1 1 1 2 2 2 1 1 1 1 2 3 3 3 3 2 2 3 6 7 8 9 9 9 9 10 9 10 9 10 10 10 10 11
1 2 2 1 1 1 2 2 1 1 1 1 2 1 1 3 2 1 1 2 2 2 3 4 3 3 3 2 4 7 8 9 9 10 10 10 10 9 10 11 11 11 11
2 2 2 2 1 1 1 1 1 1 0 1 1 2 2 2 2 2 1 2 2 2 3 3 4 4 4 3 3 6 8 8 9 10 9 9 9 9 10 11 11 11 11
1 1 1 1 1 1 1 1 1 1 1 0 1 0 1 3 2 1 3 2 2 2 3 3 4 4 4 3 4 5 7 8 8 9 9 9 10 10 11 11 12 12 11
1 1 1 1 1 1 1 1 1 1 1 1 0 0 0 0 1 2 2 3 2 2 2 3 3 3 4 4 4 5 7 8 8 9 9 9 9 10 11 12 12 12 12
1 1 1 1 1 1 1 1 1 1 1 1 1 1 1 0 1 1 2 2 2 3 2 2 3 3 3 4 5 7 8 8 9 9 9 9 9 9 10 12 13 12 12
0 1 0 0 0 1 1 1 1 1 0 1 0 0 0 1 1 1 1 1 2 2 2 1 2 3 3 3 3 6 7 8 8 9 8 8 9 8 9 10 11 11 11
1 0 0 1 1 1 1 1 1 0 0 0 0 0 0 1 0 1 1 1 1 2 2 3 1 1 2 3 4 5 4 7 8 8 8 8 8 9 8 8 9 9 9
1 1 1 1 1 1 1 1 1 0 0 0 0 0 0 1 0 0 1 1 2 1 2 3 2 2 2 2 3 3 3 6 7 8 9 8 9 9 9 9 9 8 9
1 1 1 1 1 1 1 1 1 1 1 1 0 1 1 1 1 1 1 1 1 3 2 2 2 2 2 2 3 3 4 5 6 7 8 8 9 9 9 9 10 10 10
1 1 1 1 1 1 1 1 0 0 1 1 1 1 1 1 1 1 1 1 1 2 3 3 2 2 1 2 2 2 3 3 3 6 7 8 8 8 9 10 10 10 10
1 1 1 1 0 0 0 1 1 0 0 0 1 1 2 1 1 1 1 1 1 1 2 3 2 2 2 2 2 2 3 3 3 4 6 6 7 8 9 10 10 9 9
1 1 1 1 1 1 1 1 1 1 1 1 1 1 2 1 2 2 1 1 1 1 1 2 3 2 2 2 2 2 3 2 3 4 5 7 7 7 8 9 9 10 10
1 1 0 0 1 1 1 1 1 1 1 1 1 2 2 2 3 3 2 2 1 1 1 1 2 2 2 2 1 1 2 2 3 3 4 4 6 7 8 8 9 10 10
2 1 1 1 1 0 0 0 1 1 1 1 2 2 2 2 3 2 2 2 2 1 1 1 2 2 2 1 2 2 2 3 3 2 2 3 2 3 4 6 8 10 11
1 2 2 1 1 1 2 1 0 1 1 1 2 3 3 3 3 3 3 2 2 2 2 2 2 2 4 3 3 2 2 2 3 2 1 4 2 3 4 4 7 9 10
1 1 0 1 1 2 3 2 1 0 1 2 2 2 2 2 2 2 3 3 3 3 3 3 3 4 4 4 3 2 2 3 4 3 1 3 2 4 4 4 7 7 7
1 1 1 0 0 2 3 2 2 1 1 1 2 2 1 2 2 1 1 2 3 4 4 3 4 5 5 4 3 4 4 3 3 3 2 3 3 3 4 3 5 6 6
1 1 1 1 0 2 3 3 3 1 1 2 2 2 1 2 4 2 1 2 4 5 4 5 5 5 6 6 3 1 1 1 3 4 2 2 3 2 3 3 3 3 4
1 1 1 1 0 1 2 4 3 1 1 2 3 3 4 3 4 3 1 2 4 5 4 5 4 5 5 5 4 3 3 2 2 3 3 2 2 1 2 2 2 1 1
Wind_Direction
102 85 70 70 18 105 148 137 119 129 155 194 171 156 166 174 184 189 196 198 197 197 199 200 199 201 203 204 204 203 202 203 201 197 198 199 199 200 203 206 206 206 204
102 94 75 47 353 278 188 144 156 143 149 163 160 162 168 173 181 182 185 192 193 194 196 194 193 193 196 198 198 203 205 206 203 203 205 205 202 201 204 205 208 209 207
112 116 103 61 323 41 92 107 96 90 93 118 156 164 165 169 176 182 179 177 189 194 196 198 198 199 197 196 199 200 199 198 199 203 206 207 205 203 203 202 203 206 208
111 114 102 71 358 57 70 102 99 97 75 92 152 183 164 171 174 176 178 185 189 200 203 200 199 202 203 204 205 204 204 202 200 202 203 203 205 205 204 204 205 208 210
85 96 87 54 57 66 62 98 92 117 117 118 182 166 168 177 180 178 182 194 197 197 204 208 207 209 210 211 211 211 208 207 206 206 207 208 208 207 206 208 208 209 211
68 78 73 41 62 69 52 44 74 78 126 175 262 76 157 175 169 190 197 195 200 202 200 209 212 219 218 217 216 216 214 212 212 213 213 213 212 212 211 210 210 212 212
82 75 62 52 64 81 89 75 91 78 37 80 75 22 358 1 176 197 198 189 204 203 185 191 204 213 221 222 221 220 219 217 218 218 218 219 218 217 215 214 214 215 216
76 84 81 76 69 80 63 50 66 85 26 68 116 99 5 346 335 270 201 193 206 194 189 195 193 200 208 209 221 220 221 221 221 220 222 224 220 218 218 216 217 219 220
85 75 83 94 87 96 94 67 76 113 142 337 114 139 149 224 298 315 275 231 199 193 206 202 199 200 202 204 212 221 222 223 224 223 223 225 224 222 221 221 220 221 222
71 77 81 88 96 94 88 62 70 89 119 332 314 321 165 163 165 294 316 295 237 208 209 212 209 208 206 204 209 212 219 220 223 225 226 226 227 227 225 224 221 222 222
36 64 76 80 89 100 114 67 59 77 101 125 139 306 355 37 127 160 276 309 311 262 221 207 203 210 208 206 208 220 220 220 225 230 231 229 227 228 229 226 223 224 225
352 1 78 73 85 99 116 125 106 96 95 103 91 79 115 143 226 177 223 263 279 281 257 216 210 214 213 211 218 222 219 220 224 230 232 230 228 232 232 227 225 225 228
325 302 30 60 66 112 124 121 111 100 96 107 119 146 150 208 210 183 187 245 267 289 301 271 231 218 219 210 223 226 221 221 224 228 230 231 233 236 234 227 228 229 230
206 218 86 72 66 76 88 94 96 148 103 144 324 229 215 273 233 177 189 190 274 306 311 287 286 239 232 213 224 221 227 227 224 225 226 230 233 235 235 233 233 231 233
128 85 83 70 53 63 71 87 73 6 35 252 268 289 297 285 273 251 205 181 179 230 282 285 292 286 260 221 232 225 233 236 232 229 226 229 234 236 235 235 234 231 232
106 90 73 71 67 66 65 85 73 28 47 341 321 355 317 295 299 307 288 244 192 189 237 273 264 284 290 266 249 234 239 249 242 235 229 231 235 235 234 235 234 232 230
129 120 105 95 86 78 85 94 62 56 71 0 347 348 295 293 307 311 309 292 241 192 223 269 270 288 293 284 285 258 242 244 254 248 240 236 235 238 238 237 236 235 233
158 160 151 140 132 50 89 153 235 291 190 270 283 288 292 299 304 289 281 280 259 217 202 260 284 291 279 274 273 269 266 257 251 248 247 243 239 238 238 237 236 234 232
128 141 141 167 225 244 238 214 201 236 235 248 262 254 262 274 284 277 268 271 276 274 216 231 271 279 280 288 304 295 285 282 269 257 250 250 249 249 246 243 241 235 230
94 61 65 213 238 246 241 217 193 211 256 276 275 260 255 245 244 251 255 250 249 268 263 250 272 285 278 287 294 291 300 292 277 281 279 266 257 258 256 251 247 239 230
97 84 56 31 3 331 284 240 201 201 228 272 286 277 270 272 267 255 252 232 217 211 236 254 277 295 287 284 269 261 269 287 290 277 287 276 271 266 260 255 252 244 234
102 85 67 40 14 354 2 2 85 230 256 263 278 288 291 289 295 288 290 270 212 202 214 223 241 256 272 262 254 251 261 295 294 284 268 280 264 263 262 251 256 253 240
125 107 93 62 359 338 2 10 13 184 257 264 262 279 304 325 333 303 312 325 303 277 235 215 226 243 249 253 256 264 252 246 253 260 259 279 274 266 265 267 267 255 238
147 178 208 214 323 333 359 8 16 22 332 302 274 252 264 301 313 301 300 312 293 286 267 244 233 249 250 243 228 236 242 256 272 270 197 256 272 273 280 279 276 257 238
171 210 214 209 310 327 2 24 41 32 346 316 305 296 278 285 299 308 310 291 299 302 294 279 266 269 274 273 255 235 268 270 284 281 230 224 263 278 282 284 288 262 235
202 201 221 251 246 333 7 27 43 63 358 324 324 320 314 307 308 317 289 271 286 291 307 318 311 301 285 283 272 225 212 216 248 273 260 219 248 254 297 289 293 298 247